Flag for France Weather past 2 weeks in Boulogne-Billancourt, France

45 °F

Passing clouds.

Feels Like: 43 °F
Forecast: 57 / 65 °F
Wind: 3 mph from West

Location: Paris-Orly

Current Time: Oct 4, 2015 at 8:02:23 AM

Latest Report: Oct 4, 2015 at 7:30 AM

Visibility: 6 mi

Pressure: 30.01 "Hg

Humidity: 100%

Dew point: 45 °F

Location of Boulogne-BillancourtLocation

Historic Weather in Boulogne-Billancourt — Graph


Boulogne-Billancourt temperature yesterday

Maximum temperature yesterday: 72 °F (at 4:30 PM)
Minimum temperature yesterday: 46 °F (at 7:00 AM)
Average temperature yesterday: 57 °F

Past Weeks' High & Low Weather Summary

High72 °F (Oct 3, 4:30 PM)100% (Sep 19, 7:00 AM)30.51 "Hg (Sep 19, 7:00 AM)
Low43 °F (Oct 2, 5:00 AM)40% (Sep 27, 4:00 PM)29.59 "Hg (Sep 22, 3:30 PM)
Average56 °F73%30.17 "Hg
* Reported Sep 19 7:00 AM — Oct 4 7:00 AM, Boulogne-Billancourt, Weather by CustomWeather, © 2015

Note: Actual official high and low records may vary slightly from our data, if they occured in-between our weather recording intervals... More about our weather records


Boulogne-Billancourt weather history for previous 24 hours

Time TempWeatherWind HumidityBarometerVisibility
7:00 AM
Sun, Oct 4
45 °FPassing clouds.3 mph93%30.01 "Hg6 mi
6:30 AM45 °FClear.5 mph93%30.01 "Hg10 mi
6:00 AM45 °FClear.3 mph93%30.01 "Hg10 mi
5:30 AM46 °FClear.3 mph87%30.01 "Hg10 mi
5:00 AM46 °FClear.2 mph93%30.01 "Hg10 mi
4:30 AM48 °FClear.2 mph87%29.98 "Hg10 mi
4:00 AM48 °FClear.2 mph94%29.98 "Hg10 mi
3:30 AM48 °FClear.No wind87%29.98 "Hg10 mi
3:00 AM48 °FClear.3 mph87%30.01 "Hg10 mi
2:30 AM48 °FClear.2 mph94%29.98 "Hg10 mi
2:00 AM50 °FClear.3 mph94%29.98 "Hg10 mi
1:30 AM48 °FClear.6 mph82%29.98 "Hg10 mi
1:00 AM50 °FClear.5 mph82%29.98 "Hg10 mi
12:30 AM52 °FClear.1 mph77%29.98 "Hg10 mi
11:30 PM
Sat, Oct 3
55 °FClear.3 mph67%29.95 "Hg10 mi
11:00 PM55 °FClear.3 mph67%29.95 "Hg10 mi
10:30 PM57 °FPassing clouds.6 mph67%29.95 "HgN/A
10:00 PM57 °FClear.5 mph67%29.95 "Hg10 mi
9:30 PM59 °FPassing clouds.6 mph63%29.92 "HgN/A
9:00 PM61 °FPassing clouds.7 mph63%29.92 "HgN/A
8:30 PM59 °FPassing clouds.5 mph63%29.92 "HgN/A
8:00 PM59 °FSunny.2 mph63%29.92 "Hg10 mi
7:30 PM61 °FSunny.2 mph63%29.92 "Hg10 mi
7:00 PM64 °FSunny.3 mph52%29.92 "Hg10 mi
6:30 PM66 °FSunny.3 mph49%29.92 "Hg10 mi
6:00 PM68 °FSunny.1 mph43%29.92 "Hg10 mi
5:30 PM68 °FSunny.3 mph46%29.92 "Hg10 mi
5:00 PM70 °FPassing clouds.3 mph40%29.92 "HgN/A
4:30 PM72 °FSunny.2 mph41%29.92 "Hg10 mi
4:00 PM70 °FSunny.1 mph43%29.92 "Hg10 mi
3:30 PM70 °FSunny.No wind43%29.92 "Hg10 mi
3:00 PM68 °FSunny.3 mph49%29.95 "Hg10 mi
2:30 PM68 °FPassing clouds.3 mph46%29.95 "HgN/A
2:00 PM66 °FSunny.3 mph46%29.95 "Hg10 mi
1:30 PM66 °FPassing clouds.3 mph49%29.95 "HgN/A
1:00 PM66 °FSunny.1 mph52%29.95 "Hg10 mi
12:30 PM64 °FSunny.1 mph56%29.98 "Hg10 mi
12:00 PM63 °FSunny.2 mph64%29.98 "Hg10 mi
11:30 AM61 °FSunny.2 mph63%29.98 "Hg10 mi
11:00 AM57 °FSunny.2 mph77%29.98 "Hg10 mi
10:30 AM55 °FSunny.2 mph82%29.98 "Hg10 mi
10:00 AM54 °FSunny.No wind82%29.98 "Hg10 mi
9:30 AM52 °FSunny.No wind88%29.98 "Hg10 mi
9:00 AM50 °FSunny.2 mph94%29.98 "Hg10 mi
8:00 AM46 °FClear.3 mph100%29.98 "Hg10 mi
Weather by CustomWeather, © 2015

See weather overviewHow to use our weather pages